Location: Allaines
(49.9632°N, 2.9458°E)
Time: 23:28:38
(UTC+00:00)

SAR-Lupe-2 - Pass Details

Date: 09 April 2020
Orbit: 481 x 485 km, 98.1° (Epoch: 20 May)

Event Time Altitude Azimuth Distance (km) Brightness Sun altitude
Rises 20:15:04 0° 19° (NNE) 2,557 7.4 -15.7°
Reaches altitude 10° 20:17:12 10° 26° (NNE) 1,671 6.4 -16.0°
Maximum altitude 20:20:39 44° 100° (E) 679 3.8 -16.5°
Enters shadow 20:21:21 39° 133° (SE) 744 4.0 -16.6°
